| time (UTC) | temp F | wind direction | speed knots | gust knots | rain 1hr in | rain 24hr in | rain mn in | humidity % | barometer mb |
| 20260507213405 | 54 | 109 | 6.1 | 10.4 | 0.00 | 0.00 | 0.00 | 77 | 1016.1 |
| 20260507212905 | 54 | 104 | 7.0 | 10.4 | 0.00 | 0.00 | 0.00 | 76 | 1016.1 |
| 20260507211904 | 54 | 98 | 5.2 | 10.4 | 0.00 | 0.00 | 0.00 | 77 | 1016.1 |
| 20260507211403 | 54 | 103 | 6.1 | 11.3 | 0.00 | 0.00 | 0.00 | 77 | 1016.1 |
| 20260507210403 | 53 | 91 | 5.2 | 10.4 | 0.00 | 0.00 | 0.00 | 77 | 1016.1 |
| 20260507205904 | 53 | 102 | 4.3 | 8.7 | 0.00 | 0.00 | 0.00 | 78 | 1016.0 |
| 20260507205403 | 53 | 107 | 6.1 | 11.3 | 0.00 | 0.00 | 0.00 | 77 | 1015.9 |
| 20260507204906 | 53 | 81 | 5.2 | 8.7 | 0.00 | 0.00 | 0.00 | 78 | 1015.8 |
| 20260507204404 | 53 | 98 | 4.3 | 10.4 | 0.00 | 0.00 | 0.00 | 78 | 1016.0 |
| 20260507203904 | 53 | 110 | 5.2 | 10.4 | 0.00 | 0.00 | 0.00 | 77 | 1016.0 |
| 20260507203404 | 53 | 102 | 5.2 | 8.7 | 0.00 | 0.00 | 0.00 | 78 | 1016.0 |
| 20260507202904 | 53 | 117 | 5.2 | 7.8 | 0.00 | 0.00 | 0.00 | 77 | 1016.1 |
| 20260507202403 | 53 | 111 | 5.2 | 7.8 | 0.00 | 0.00 | 0.00 | 78 | 1016.1 |
| 20260507201904 | 53 | 99 | 3.5 | 7.0 | 0.00 | 0.00 | 0.00 | 79 | 1016.0 |
| 20260507200904 | 53 | 117 | 5.2 | 7.0 | 0.00 | 0.00 | 0.00 | 79 | 1015.9 |
| 20260507200403 | 53 | 121 | 4.3 | 7.8 | 0.00 | 0.00 | 0.00 | 78 | 1015.9 |
| 20260507195404 | 54 | 121 | 2.6 | 7.0 | 0.00 | 0.00 | 0.00 | 78 | 1015.7 |
| 20260507194905 | 54 | 115 | 4.3 | 7.0 | 0.00 | 0.00 | 0.00 | 78 | 1015.7 |
| 20260507194405 | 54 | 120 | 2.6 | 7.0 | 0.00 | 0.00 | 0.00 | 78 | 1015.7 |
| 20260507193905 | 54 | 138 | 1.7 | 5.2 | 0.00 | 0.00 | 0.00 | 77 | 1015.6 |
| 20260507193405 | 54 | 112 | 1.7 | 7.0 | 0.00 | 0.00 | 0.00 | 77 | 1015.5 |
| 20260507192905 | 54 | 123 | 4.3 | 7.0 | 0.00 | 0.00 | 0.00 | 77 | 1015.5 |
| 20260507190404 | 55 | 128 | 2.6 | 7.0 | 0.00 | 0.00 | 0.00 | 75 | 1015.3 |
| 20260507185905 | 55 | 117 | 3.5 | 6.1 | 0.00 | 0.00 | 0.00 | 74 | 1015.3 |
| 20260507185405 | 55 | 127 | 2.6 | 6.1 | 0.00 | 0.00 | 0.00 | 73 | 1015.3 |
| 20260507184903 | 56 | 118 | 2.6 | 6.1 | 0.00 | 0.00 | 0.00 | 74 | 1015.3 |
| 20260507184404 | 56 | 139 | 2.6 | 7.0 | 0.00 | 0.00 | 0.00 | 73 | 1015.2 |
| 20260507183904 | 56 | 120 | 3.5 | 7.8 | 0.00 | 0.00 | 0.00 | 73 | 1015.2 |
| 20260507182903 | 57 | 122 | 2.6 | 6.1 | 0.00 | 0.00 | 0.00 | 72 | 1015.3 |
| 20260507182404 | 57 | 115 | 3.5 | 7.8 | 0.00 | 0.00 | 0.00 | 71 | 1015.2 |
| 20260507181904 | 57 | 113 | 3.5 | 6.1 | 0.00 | 0.00 | 0.00 | 71 | 1015.2 |
| 20260507181404 | 57 | 114 | 4.3 | 7.0 | 0.00 | 0.00 | 0.00 | 70 | 1015.2 |
| 20260507180904 | 58 | 104 | 4.3 | 7.8 | 0.00 | 0.00 | 0.00 | 70 | 1015.1 |
| 20260507175904 | 58 | 98 | 3.5 | 6.1 | 0.00 | 0.00 | 0.00 | 71 | 1015.2 |
| 20260507175405 | 58 | 111 | 4.3 | 7.0 | 0.00 | 0.00 | 0.00 | 70 | 1015.2 |
| 20260507174903 | 58 | 114 | 3.5 | 7.0 | 0.00 | 0.00 | 0.00 | 70 | 1015.1 |
| 20260507174404 | 58 | 110 | 5.2 | 7.0 | 0.00 | 0.00 | 0.00 | 69 | 1015.1 |
| 20260507173403 | 59 | 129 | 4.3 | 7.8 | 0.00 | 0.00 | 0.00 | 69 | 1015.2 |
| 20260507172903 | 59 | 104 | 4.3 | 8.7 | 0.00 | 0.00 | 0.00 | 68 | 1015.2 |
| 20260507172403 | 59 | 109 | 4.3 | 7.8 | 0.00 | 0.00 | 0.00 | 67 | 1015.3 |
| 20260507171905 | 60 | 123 | 3.5 | 6.1 | 0.00 | 0.00 | 0.00 | 67 | 1015.3 |
| 20260507170904 | 60 | 133 | 2.6 | 7.8 | 0.00 | 0.00 | 0.00 | 68 | 1015.3 |
| 20260507170404 | 60 | 128 | 4.3 | 7.0 | 0.00 | 0.00 | 0.00 | 67 | 1015.3 |
| 20260507165903 | 60 | 122 | 4.3 | 7.8 | 0.00 | 0.00 | 0.00 | 67 | 1015.3 |
| 20260507165403 | 60 | 112 | 4.3 | 7.8 | 0.00 | 0.00 | 0.00 | 66 | 1015.3 |
| 20260507164904 | 60 | 133 | 5.2 | 8.7 | 0.00 | 0.00 | 0.00 | 67 | 1015.4 |
| 20260507164404 | 60 | 131 | 5.2 | 7.8 | 0.00 | 0.00 | 0.00 | 67 | 1015.4 |
| 20260507163903 | 60 | 115 | 5.2 | 7.8 | 0.00 | 0.00 | 0.00 | 68 | 1015.4 |
| 20260507163403 | 60 | 117 | 5.2 | 8.7 | 0.00 | 0.00 | 0.00 | 67 | 1015.4 |
| 20260507162904 | 60 | 127 | 5.2 | 8.7 | 0.00 | 0.00 | 0.00 | 67 | 1015.4 |
| 20260507161904 | 60 | 115 | 7.0 | 10.4 | 0.00 | 0.00 | 0.00 | 66 | 1015.3 |
| 20260507161404 | 60 | 122 | 4.3 | 10.4 | 0.00 | 0.00 | 0.00 | 67 | 1015.4 |
| 20260507160904 | 60 | 116 | 5.2 | 10.4 | 0.00 | 0.00 | 0.00 | 67 | 1015.4 |
| 20260507160403 | 60 | 121 | 6.1 | 10.4 | 0.00 | 0.00 | 0.00 | 66 | 1015.4 |
| 20260507155903 | 61 | 131 | 5.2 | 10.4 | 0.00 | 0.00 | 0.00 | 66 | 1015.5 |
| 20260507155404 | 61 | 121 | 5.2 | 10.4 | 0.00 | 0.00 | 0.00 | 66 | 1015.4 |
| 20260507154905 | 61 | 125 | 6.1 | 10.4 | 0.00 | 0.00 | 0.00 | 65 | 1015.5 |
| 20260507153904 | 61 | 128 | 5.2 | 10.4 | 0.00 | 0.00 | 0.00 | 65 | 1015.4 |
| 20260507153403 | 61 | 114 | 7.0 | 10.4 | 0.00 | 0.00 | 0.00 | 64 | 1015.5 |
| 20260507152904 | 61 | 110 | 6.1 | 10.4 | 0.00 | 0.00 | 0.00 | 64 | 1015.5 |
| 20260507152403 | 61 | 113 | 6.1 | 10.4 | 0.00 | 0.00 | 0.00 | 64 | 1015.6 |
| 20260507151903 | 61 | 116 | 7.0 | 10.4 | 0.00 | 0.00 | 0.00 | 63 | 1015.6 |
| 20260507150905 | 62 | 121 | 6.1 | 10.4 | 0.00 | 0.00 | 0.00 | 64 | 1015.6 |
| 20260507150404 | 62 | 103 | 6.1 | 10.4 | 0.00 | 0.00 | 0.00 | 64 | 1015.6 |
| 20260507145904 | 62 | 116 | 5.2 | 8.7 | 0.00 | 0.00 | 0.00 | 64 | 1015.6 |
| 20260507145404 | 62 | 131 | 6.1 | 10.4 | 0.00 | 0.00 | 0.00 | 63 | 1015.6 |
| 20260507144904 | 62 | 124 | 5.2 | 8.7 | 0.00 | 0.00 | 0.00 | 63 | 1015.6 |
| 20260507144404 | 62 | 125 | 5.2 | 8.7 | 0.00 | 0.00 | 0.00 | 63 | 1015.7 |
| 20260507143904 | 62 | 131 | 5.2 | 10.4 | 0.00 | 0.00 | 0.00 | 63 | 1015.7 |
| 20260507142903 | 62 | 129 | 6.1 | 10.4 | 0.00 | 0.00 | 0.00 | 63 | 1015.8 |
| 20260507142405 | 62 | 128 | 5.2 | 7.8 | 0.00 | 0.00 | 0.00 | 63 | 1015.8 |
| 20260507141903 | 62 | 134 | 6.1 | 8.7 | 0.00 | 0.00 | 0.00 | 64 | 1015.9 |
| 20260507141403 | 62 | 123 | 7.0 | 10.4 | 0.00 | 0.00 | 0.00 | 64 | 1015.9 |
| 20260507140904 | 62 | 128 | 6.1 | 8.7 | 0.00 | 0.00 | 0.00 | 63 | 1015.9 |
| 20260507135904 | 62 | 135 | 6.1 | 10.4 | 0.00 | 0.00 | 0.00 | 63 | 1015.9 |
| 20260507135403 | 62 | 130 | 4.3 | 10.4 | 0.00 | 0.00 | 0.00 | 62 | 1015.9 |
| 20260507134903 | 62 | 117 | 6.1 | 10.4 | 0.00 | 0.00 | 0.00 | 63 | 1015.9 |
| 20260507134403 | 62 | 112 | 6.1 | 10.4 | 0.00 | 0.00 | 0.00 | 64 | 1015.9 |
| 20260507133903 | 62 | 141 | 7.0 | 10.4 | 0.00 | 0.00 | 0.00 | 61 | 1015.9 |
| 20260507133405 | 62 | 143 | 5.2 | 10.4 | 0.00 | 0.00 | 0.00 | 64 | 1015.9 |
| 20260507131906 | 62 | 132 | 5.2 | 10.4 | 0.00 | 0.00 | 0.00 | 62 | 1015.8 |
| 20260507130405 | 61 | 141 | 6.1 | 10.4 | 0.00 | 0.00 | 0.00 | 63 | 1016.0 |
| 20260507125903 | 61 | 134 | 5.2 | 10.4 | 0.00 | 0.00 | 0.00 | 66 | 1016.0 |
| 20260507125404 | 61 | 143 | 6.1 | 10.4 | 0.00 | 0.00 | 0.00 | 67 | 1016.0 |
| 20260507124904 | 61 | 132 | 6.1 | 10.4 | 0.00 | 0.00 | 0.00 | 65 | 1016.0 |
| 20260507123904 | 61 | 136 | 7.8 | 10.4 | 0.00 | 0.00 | 0.00 | 66 | 1016.0 |
| 20260507123404 | 61 | 135 | 6.1 | 10.4 | 0.00 | 0.00 | 0.00 | 64 | 1016.0 |
| 20260507122904 | 61 | 149 | 7.8 | 12.2 | 0.00 | 0.00 | 0.00 | 65 | 1016.0 |
| 20260507122403 | 61 | 142 | 5.2 | 10.4 | 0.00 | 0.00 | 0.00 | 65 | 1016.1 |
| 20260507120903 | 61 | 134 | 7.8 | 11.3 | 0.00 | 0.00 | 0.00 | 65 | 1016.2 |
| 20260507120403 | 61 | 150 | 7.8 | 12.2 | 0.00 | 0.00 | 0.00 | 66 | 1016.2 |
| 20260507115904 | 60 | 131 | 6.1 | 10.4 | 0.00 | 0.00 | 0.00 | 66 | 1016.2 |
| 20260507115404 | 60 | 135 | 5.2 | 10.4 | 0.00 | 0.00 | 0.00 | 66 | 1016.2 |
| 20260507114904 | 61 | 146 | 5.2 | 11.3 | 0.00 | 0.00 | 0.00 | 66 | 1016.1 |
| 20260507114404 | 61 | 132 | 6.1 | 10.4 | 0.00 | 0.00 | 0.00 | 64 | 1016.1 |
| 20260507113904 | 62 | 149 | 5.2 | 12.2 | 0.00 | 0.00 | 0.00 | 64 | 1016.1 |
| 20260507113404 | 62 | 139 | 7.0 | 11.3 | 0.00 | 0.00 | 0.00 | 64 | 1016.1 |
| 20260507112404 | 62 | 121 | 5.2 | 10.4 | 0.00 | 0.00 | 0.00 | 65 | 1016.2 |
| 20260507111904 | 61 | 145 | 5.2 | 11.3 | 0.00 | 0.00 | 0.00 | 65 | 1016.2 |
| 20260507111404 | 61 | 130 | 4.3 | 10.4 | 0.00 | 0.00 | 0.00 | 67 | 1016.2 |
| 20260507110905 | 61 | 137 | 6.1 | 10.4 | 0.00 | 0.00 | 0.00 | 65 | 1016.2 |
| 20260507105904 | 61 | 144 | 5.2 | 10.4 | 0.00 | 0.00 | 0.00 | 65 | 1016.3 |
| 20260507105404 | 61 | 137 | 5.2 | 10.4 | 0.00 | 0.00 | 0.00 | 65 | 1016.3 |
| 20260507104903 | 61 | 141 | 5.2 | 8.7 | 0.00 | 0.00 | 0.00 | 67 | 1016.3 |
| 20260507104404 | 61 | 147 | 5.2 | 10.4 | 0.00 | 0.00 | 0.00 | 67 | 1016.3 |
| 20260507103903 | 61 | 131 | 5.2 | 10.4 | 0.00 | 0.00 | 0.00 | 66 | 1016.4 |
| 20260507102903 | 61 | 138 | 5.2 | 10.4 | 0.00 | 0.00 | 0.00 | 66 | 1016.3 |
| 20260507102404 | 61 | 128 | 5.2 | 10.4 | 0.00 | 0.00 | 0.00 | 66 | 1016.3 |
| 20260507101904 | 61 | 118 | 6.1 | 10.4 | 0.00 | 0.00 | 0.00 | 66 | 1016.4 |
| 20260507100903 | 61 | 117 | 6.1 | 10.4 | 0.00 | 0.00 | 0.00 | 67 | 1016.4 |
| 20260507100404 | 60 | 121 | 5.2 | 10.4 | 0.00 | 0.00 | 0.00 | 68 | 1016.3 |
| 20260507095904 | 60 | 124 | 6.1 | 10.4 | 0.00 | 0.00 | 0.00 | 67 | 1016.3 |
| 20260507094904 | 60 | 117 | 6.1 | 10.4 | 0.00 | 0.00 | 0.00 | 68 | 1016.3 |
| 20260507094405 | 60 | 110 | 5.2 | 8.7 | 0.00 | 0.00 | 0.00 | 69 | 1016.4 |
| 20260507093403 | 59 | 127 | 6.1 | 10.4 | 0.00 | 0.00 | 0.00 | 71 | 1016.4 |
| 20260507092904 | 58 | 147 | 4.3 | 8.7 | 0.00 | 0.00 | 0.00 | 71 | 1016.4 |
| 20260507092404 | 58 | 139 | 6.1 | 10.4 | 0.00 | 0.00 | 0.00 | 72 | 1016.5 |
| 20260507091904 | 58 | 142 | 5.2 | 7.8 | 0.00 | 0.00 | 0.00 | 72 | 1016.5 |
| 20260507090903 | 58 | 129 | 4.3 | 7.8 | 0.00 | 0.00 | 0.00 | 71 | 1016.4 |
| 20260507090405 | 58 | 132 | 5.2 | 8.7 | 0.00 | 0.00 | 0.00 | 70 | 1016.4 |
| 20260507085904 | 59 | 148 | 5.2 | 10.4 | 0.00 | 0.00 | 0.00 | 69 | 1016.4 |
| 20260507085403 | 59 | 131 | 3.5 | 8.7 | 0.00 | 0.00 | 0.00 | 70 | 1016.4 |
| 20260507084405 | 58 | 119 | 4.3 | 10.4 | 0.00 | 0.00 | 0.00 | 70 | 1016.3 |
| 20260507083905 | 58 | 125 | 6.1 | 10.4 | 0.00 | 0.00 | 0.00 | 70 | 1016.3 |
| 20260507083404 | 58 | 113 | 5.2 | 10.4 | 0.00 | 0.00 | 0.00 | 71 | 1016.3 |
| 20260507082904 | 57 | 106 | 6.1 | 10.4 | 0.00 | 0.00 | 0.00 | 73 | 1016.1 |
| 20260507082404 | 57 | 100 | 6.1 | 11.3 | 0.00 | 0.00 | 0.00 | 74 | 1016.1 |
| 20260507081904 | 57 | 98 | 5.2 | 10.4 | 0.00 | 0.00 | 0.00 | 74 | 1016.0 |
| 20260507080404 | 57 | 88 | 6.1 | 10.4 | 0.00 | 0.00 | 0.00 | 75 | 1016.0 |
| 20260507075903 | 56 | 112 | 6.1 | 10.4 | 0.00 | 0.00 | 0.00 | 75 | 1016.0 |
| 20260507075404 | 56 | 109 | 6.1 | 10.4 | 0.00 | 0.00 | 0.00 | 75 | 1016.0 |
| 20260507074903 | 56 | 111 | 4.3 | 10.4 | 0.00 | 0.00 | 0.00 | 75 | 1015.9 |
| 20260507074404 | 56 | 112 | 3.5 | 7.8 | 0.00 | 0.00 | 0.00 | 75 | 1016.0 |
| 20260507073904 | 55 | 99 | 4.3 | 8.7 | 0.00 | 0.00 | 0.00 | 75 | 1016.0 |
| 20260507073404 | 55 | 105 | 5.2 | 8.7 | 0.00 | 0.00 | 0.00 | 75 | 1016.0 |
| 20260507072905 | 55 | 109 | 5.2 | 10.4 | 0.00 | 0.00 | 0.00 | 75 | 1016.0 |
| 20260507072405 | 55 | 98 | 5.2 | 8.7 | 0.00 | 0.00 | 0.00 | 75 | 1016.0 |
| 20260507071903 | 55 | 112 | 5.2 | 8.7 | 0.00 | 0.00 | 0.00 | 75 | 1016.0 |
| 20260507071404 | 54 | 95 | 5.2 | 10.4 | 0.00 | 0.00 | 0.00 | 75 | 1016.0 |
| 20260507070904 | 54 | 110 | 5.2 | 8.7 | 0.00 | 0.00 | 0.00 | 75 | 1016.0 |
| 20260507070403 | 54 | 83 | 4.3 | 7.8 | 0.00 | 0.00 | 0.00 | 75 | 1015.9 |
| 20260507065904 | 53 | 100 | 3.5 | 7.8 | 0.00 | 0.00 | 0.00 | 75 | 1015.9 |
| 20260507065404 | 53 | 104 | 4.3 | 8.7 | 0.00 | 0.00 | 0.00 | 76 | 1015.9 |
| 20260507064905 | 53 | 97 | 5.2 | 7.8 | 0.00 | 0.00 | 0.00 | 76 | 1015.8 |
| 20260507064404 | 53 | 88 | 5.2 | 7.8 | 0.00 | 0.00 | 0.00 | 76 | 1015.8 |
| 20260507063903 | 52 | 92 | 1.7 | 7.0 | 0.00 | 0.00 | 0.00 | 77 | 1015.8 |
| 20260507063404 | 52 | 97 | 3.5 | 7.0 | 0.00 | 0.00 | 0.00 | 78 | 1015.9 |
| 20260507062403 | 51 | 95 | 1.7 | 4.3 | 0.00 | 0.00 | 0.00 | 80 | 1015.8 |
| 20260507061903 | 51 | 63 | 2.6 | 4.3 | 0.00 | 0.00 | 0.00 | 80 | 1015.8 |
| 20260507061405 | 50 | 62 | 1.7 | 6.1 | 0.00 | 0.00 | 0.00 | 81 | 1015.8 |
| 20260507060905 | 50 | 74 | 1.7 | 2.6 | 0.00 | 0.00 | 0.00 | 82 | 1015.7 |
| 20260507060403 | 49 | 98 | 1.7 | 2.6 | 0.00 | 0.00 | 0.00 | 82 | 1015.7 |
| 20260507055904 | 49 | 99 | 2.6 | 7.0 | 0.00 | 0.00 | 0.00 | 81 | 1015.6 |
| 20260507055404 | 49 | 88 | 2.6 | 4.3 | 0.00 | 0.00 | 0.00 | 82 | 1015.6 |
| 20260507054904 | 48 | 80 | 1.7 | 5.2 | 0.00 | 0.00 | 0.00 | 82 | 1015.6 |
| 20260507054406 | 48 | 72 | 1.7 | 2.6 | 0.00 | 0.00 | 0.00 | 82 | 1015.6 |
| 20260507053903 | 48 | 76 | 0.9 | 2.6 | 0.00 | 0.00 | 0.00 | 82 | 1015.5 |
| 20260507053404 | 48 | 59 | 0.9 | 2.6 | 0.00 | 0.00 | 0.00 | 82 | 1015.5 |
| 20260507052904 | 47 | 71 | 0.9 | 4.3 | 0.00 | 0.00 | 0.00 | 83 | 1015.5 |
| 20260507052403 | 47 | 49 | 1.7 | 2.6 | 0.00 | 0.00 | 0.00 | 83 | 1015.5 |
| 20260507051904 | 47 | 52 | 1.7 | 4.3 | 0.00 | 0.00 | 0.00 | 83 | 1015.4 |
| 20260507051406 | 47 | 62 | 0.9 | 4.3 | 0.00 | 0.00 | 0.00 | 84 | 1015.4 |
| 20260507050903 | 46 | 59 | 2.6 | 2.6 | 0.00 | 0.00 | 0.00 | 84 | 1015.4 |
| 20260507050404 | 46 | 63 | 1.7 | 5.2 | 0.00 | 0.00 | 0.00 | 84 | 1015.4 |
| 20260507045903 | 46 | 56 | 0.9 | 2.6 | 0.00 | 0.00 | 0.00 | 85 | 1015.3 |
| 20260507045404 | 45 | 68 | 0.9 | 2.6 | 0.00 | 0.00 | 0.00 | 84 | 1015.3 |
| 20260507044904 | 45 | 62 | 0.9 | 2.6 | 0.00 | 0.00 | 0.00 | 84 | 1015.3 |
| 20260507044405 | 45 | 62 | 0.9 | 1.7 | 0.00 | 0.00 | 0.00 | 84 | 1015.3 |
| 20260507043904 | 45 | 62 | 0.0 | 1.7 | 0.00 | 0.00 | 0.00 | 84 | 1015.3 |
| 20260507043404 | 45 | 28 | 0.9 | 2.6 | 0.00 | 0.00 | 0.00 | 84 | 1015.2 |
| 20260507042904 | 45 | 47 | 0.9 | 2.6 | 0.00 | 0.00 | 0.00 | 84 | 1015.2 |
| 20260507042404 | 45 | 54 | 1.7 | 2.6 | 0.00 | 0.00 | 0.00 | 84 | 1015.2 |
| 20260507041904 | 45 | 65 | 0.9 | 2.6 | 0.00 | 0.00 | 0.00 | 84 | 1015.2 |
| 20260507041404 | 45 | 57 | 0.9 | 2.6 | 0.00 | 0.00 | 0.00 | 84 | 1015.2 |
| 20260507040905 | 45 | 58 | 1.7 | 2.6 | 0.00 | 0.00 | 0.00 | 85 | 1015.2 |
| 20260507040403 | 45 | 56 | 0.9 | 2.6 | 0.00 | 0.00 | 0.00 | 85 | 1015.2 |
| 20260507035404 | 45 | 38 | 1.7 | 4.3 | 0.00 | 0.00 | 0.00 | 84 | 1015.2 |
| 20260507034904 | 45 | 36 | 0.9 | 1.7 | 0.00 | 0.00 | 0.00 | 84 | 1015.2 |
| 20260507034404 | 45 | 36 | 0.9 | 2.6 | 0.00 | 0.00 | 0.00 | 84 | 1015.1 |
| 20260507033903 | 45 | 36 | 0.9 | 2.6 | 0.00 | 0.00 | 0.00 | 83 | 1015.2 |
| 20260507032404 | 46 | 49 | 0.9 | 2.6 | 0.00 | 0.00 | 0.00 | 83 | 1015.0 |
| 20260507031903 | 46 | 47 | 1.7 | 2.6 | 0.00 | 0.00 | 0.00 | 83 | 1015.1 |
| 20260507031403 | 46 | 43 | 0.9 | 2.6 | 0.00 | 0.00 | 0.00 | 83 | 1015.0 |
| 20260507030904 | 46 | 51 | 0.9 | 4.3 | 0.00 | 0.00 | 0.00 | 84 | 1015.0 |
| 20260507030404 | 45 | 34 | 1.7 | 4.3 | 0.00 | 0.00 | 0.00 | 84 | 1015.1 |
| 20260507025903 | 45 | 33 | 1.7 | 4.3 | 0.00 | 0.00 | 0.00 | 84 | 1015.1 |
| 20260507025404 | 45 | 32 | 0.9 | 2.6 | 0.00 | 0.00 | 0.00 | 83 | 1015.0 |
| 20260507024404 | 45 | 34 | 0.9 | 2.6 | 0.00 | 0.00 | 0.00 | 84 | 1015.0 |
| 20260507023903 | 45 | 42 | 1.7 | 2.6 | 0.00 | 0.00 | 0.00 | 84 | 1014.9 |
| 20260507023405 | 45 | 30 | 1.7 | 2.6 | 0.00 | 0.00 | 0.00 | 85 | 1014.9 |
| 20260507022904 | 45 | 20 | 1.7 | 2.6 | 0.00 | 0.00 | 0.00 | 85 | 1014.9 |
| 20260507022404 | 44 | 46 | 1.7 | 2.6 | 0.00 | 0.00 | 0.00 | 86 | 1014.8 |
| 20260507021903 | 44 | 38 | 1.7 | 2.6 | 0.00 | 0.00 | 0.00 | 85 | 1014.9 |
| 20260507021404 | 44 | 44 | 1.7 | 2.6 | 0.00 | 0.00 | 0.00 | 85 | 1014.9 |
| 20260507020404 | 44 | 22 | 1.7 | 2.6 | 0.00 | 0.00 | 0.00 | 83 | 1014.8 |
| 20260507015904 | 44 | 46 | 1.7 | 2.6 | 0.00 | 0.00 | 0.00 | 83 | 1014.8 |
| 20260507015404 | 44 | 46 | 0.9 | 2.6 | 0.00 | 0.00 | 0.00 | 83 | 1014.8 |
| 20260507014904 | 44 | 46 | 0.9 | 2.6 | 0.00 | 0.00 | 0.00 | 83 | 1014.8 |
| 20260507014405 | 44 | 46 | 0.0 | 0.9 | 0.00 | 0.00 | 0.00 | 83 | 1014.8 |
| 20260507013404 | 45 | 46 | 0.0 | 0.9 | 0.00 | 0.00 | 0.00 | 82 | 1014.7 |
| 20260507012903 | 45 | 46 | 0.0 | 1.7 | 0.00 | 0.00 | 0.00 | 81 | 1014.7 |
| 20260507012404 | 45 | 46 | 0.0 | 0.0 | 0.00 | 0.00 | 0.00 | 81 | 1014.8 |
| 20260507011903 | 45 | 46 | 0.0 | 0.9 | 0.00 | 0.00 | 0.00 | 81 | 1014.8 |
| 20260507010903 | 45 | 46 | 0.0 | 1.7 | 0.00 | 0.00 | 0.00 | 79 | 1014.8 |
| 20260507010405 | 46 | 46 | 0.0 | 0.9 | 0.00 | 0.00 | 0.00 | 79 | 1014.8 |
| 20260507004904 | 46 | 46 | 0.0 | 0.9 | 0.00 | 0.00 | 0.00 | 78 | 1014.9 |
| 20260507003903 | 46 | 46 | 0.0 | 1.7 | 0.00 | 0.00 | 0.00 | 76 | 1014.9 |
| 20260507002904 | 47 | 46 | 0.0 | 0.0 | 0.00 | 0.00 | 0.00 | 75 | 1014.9 |
| 20260507002405 | 47 | 46 | 0.0 | 0.9 | 0.00 | 0.00 | 0.00 | 74 | 1014.9 |
| 20260507001904 | 47 | 46 | 0.0 | 0.9 | 0.00 | 0.00 | 0.00 | 73 | 1014.9 |
| 20260507001405 | 47 | 46 | 0.0 | 0.9 | 0.00 | 0.00 | 0.00 | 73 | 1015.0 |
| 20260507000905 | 48 | 44 | 0.9 | 1.7 | 0.00 | 0.00 | 0.00 | 73 | 1015.0 |
| 20260507000406 | 48 | 43 | 0.0 | 1.7 | 0.00 | 0.00 | 0.00 | 72 | 1015.0 |
| 20260506235903 | 48 | 43 | 0.0 | 1.7 | 0.00 | 0.00 | 0.00 | 72 | 1014.9 |
| 20260506235404 | 49 | 43 | 0.0 | 0.9 | 0.00 | 0.00 | 0.00 | 72 | 1014.9 |
| 20260506234404 | 49 | 43 | 0.0 | 0.0 | 0.00 | 0.00 | 0.00 | 70 | 1014.9 |
| 20260506233904 | 50 | 43 | 0.0 | 1.7 | 0.00 | 0.00 | 0.00 | 70 | 1014.9 |
| 20260506233403 | 50 | 43 | 0.9 | 2.6 | 0.00 | 0.00 | 0.00 | 70 | 1014.9 |
| 20260506232904 | 50 | 43 | 1.7 | 2.6 | 0.00 | 0.00 | 0.00 | 70 | 1014.9 |
| 20260506232404 | 50 | 20 | 1.7 | 2.6 | 0.00 | 0.00 | 0.00 | 70 | 1014.9 |
| 20260506231904 | 51 | 20 | 0.9 | 2.6 | 0.00 | 0.00 | 0.00 | 69 | 1014.8 |
| 20260506231404 | 51 | 20 | 1.7 | 2.6 | 0.00 | 0.00 | 0.00 | 68 | 1014.8 |
| 20260506230403 | 52 | 18 | 0.9 | 2.6 | 0.00 | 0.00 | 0.00 | 67 | 1014.8 |
| 20260506225904 | 52 | 28 | 1.7 | 2.6 | 0.00 | 0.00 | 0.00 | 67 | 1014.7 |
| 20260506225405 | 52 | 31 | 1.7 | 4.3 | 0.00 | 0.00 | 0.00 | 66 | 1014.7 |
| 20260506224903 | 52 | 49 | 0.9 | 2.6 | 0.00 | 0.00 | 0.00 | 66 | 1014.7 |
| 20260506224403 | 52 | 40 | 1.7 | 5.2 | 0.00 | 0.00 | 0.00 | 65 | 1014.7 |
| 20260506223905 | 53 | 37 | 2.6 | 5.2 | 0.00 | 0.00 | 0.00 | 65 | 1014.6 |
| 20260506223403 | 53 | 30 | 1.7 | 2.6 | 0.00 | 0.00 | 0.00 | 64 | 1014.6 |
| 20260506222904 | 53 | 44 | 0.9 | 5.2 | 0.00 | 0.00 | 0.00 | 64 | 1014.6 |
| 20260506222404 | 53 | 42 | 2.6 | 5.2 | 0.00 | 0.00 | 0.00 | 65 | 1014.6 |
| 20260506221904 | 53 | 35 | 0.9 | 2.6 | 0.00 | 0.00 | 0.00 | 64 | 1014.6 |
| 20260506221404 | 53 | 35 | 0.9 | 2.6 | 0.00 | 0.00 | 0.00 | 64 | 1014.6 |
| 20260506220904 | 53 | 35 | 2.6 | 5.2 | 0.00 | 0.00 | 0.00 | 63 | 1014.6 |
| 20260506220403 | 53 | 56 | 1.7 | 4.3 | 0.00 | 0.00 | 0.00 | 62 | 1014.5 |
| 20260506215905 | 54 | 31 | 1.7 | 5.2 | 0.00 | 0.00 | 0.00 | 62 | 1014.5 |
| 20260506215404 | 53 | 54 | 2.6 | 7.0 | 0.00 | 0.00 | 0.00 | 62 | 1014.4 |
| 20260506214903 | 53 | 49 | 2.6 | 5.2 | 0.00 | 0.00 | 0.00 | 63 | 1014.4 |
| 20260506213904 | 54 | 38 | 0.9 | 2.6 | 0.00 | 0.00 | 0.00 | 64 | 1014.5 |